Location: Misciano
(43.5000°N, 11.9500°E)
Time: 07:33:35
(UTC+00:00)

Cosmos 1818 - Pass Details

Date: 13 August 2020
Orbit: 776 x 797 km, 65.0° (Epoch: 26 September)

Event Time Altitude Azimuth Distance (km) Brightness Sun altitude
Rises 19:04:53 0° 323° (NW) 3,308 8.2 -8.5°
Reaches altitude 10° 19:07:20 10° 319° (NW) 2,375 7.4 -8.9°
Maximum altitude 19:12:42 60° 241° (WSW) 913 4.1 -9.8°
Drops below altitude 10° 19:18:02 10° 163° (SSE) 2,357 5.6 -10.6°
Enters shadow 19:18:56 - 161° (SSE) 2,694 5.9 -10.7°
